Parkersburg, WV

8:33 PM EDT on October 20, 2017 (GMT -0400)
Wood County Wilson

Weather History for KPKB - August, 2013

Change the Weather History Date:

Monday, August 26, 2013

  Actual Average Record
Temperature  
Mean Temperature 71 °F 72 °F  
Max Temperature 84 °F 84 °F 95 °F (1948)
Min Temperature 58 °F 61 °F 49 °F (1956)
Degree Days  
Heating Degree Days 0 0  
Month to date heating degree days 5 0  
Since 1 June heating degree days 11 20  
Since 1 July heating degree days 5 1  
Cooling Degree Days 6 8  
Month to date cooling degree days 157 226  
Year to date cooling degree days 763 793  
Since 1 June cooling degree days 637 709  
Growing Degree Days 20 (Base 50)    
Moisture  
Dew Point 63 °F    
Average Humidity 73    
Maximum Humidity 97    
Minimum Humidity 48    
Precipitation  
Precipitation 0.00 in 0.11 in 1.37 in (1940)
Month to date precipitation 6.11 3.05  
Year to date precipitation 32.34 28.23  
Sea Level Pressure  
Sea Level Pressure 30.21 in    
Wind  
Wind Speed 3 mph (SSW)    
Max Wind Speed 10 mph    
Max Gust Speed 15 mph    
Visibility 9 miles    
Events      
T = Trace of Precipitation, MM = Missing Value Source: NWS Daily Summary

Daily Weather History Graph

Daily Weather History Graph

Search for Another Location

Airport or City:

Trip Planner

Search our weather history database for the weather conditions in past years. The results will help you decide how hot, cold, wet, or windy it might be!

Date:

Astronomy

Aug. 26, 2013 Rise Set
Actual Time 6:48 AM EDT 8:05 PM EDT
Civil Twilight 6:21 AM EDT 8:33 PM EDT
Nautical Twilight 5:47 AM EDT 9:06 PM EDT
Astronomical Twilight 5:12 AM EDT 9:41 PM EDT
Moon 11:17 PM EDT (8/26) 12:46 PM EDT (8/26)
Length of Visible Light 14h 12m
Length of Day
13h 16m
Waning Gibbous, 67% of the Moon is Illuminated
Aug 26
Waning Gibbous
Aug 28
Last Quarter
Sep 5
New
Sep 12
First Quarter
Sep 19
Full

Hourly Weather History & Observations

Time (EDT) Temp. Heat Index Dew Point Humidity Pressure Visibility Wind Dir Wind Speed Gust Speed Precip Events Conditions
12:53 AM 62.1 °F - 60.1 °F 93% 30.30 in 7.0 mi Calm Calm - N/A   Clear
1:53 AM 61.0 °F - 59.0 °F 93% 30.29 in 5.0 mi Calm Calm - N/A   Clear
2:53 AM 60.1 °F - 57.9 °F 93% 30.27 in 7.0 mi Calm Calm - N/A   Clear
3:53 AM 60.1 °F - 57.9 °F 93% 30.26 in 8.0 mi Calm Calm - N/A   Clear
4:53 AM 59.0 °F - 57.0 °F 93% 30.25 in 8.0 mi Calm Calm - N/A   Unknown
5:53 AM 57.9 °F - 55.9 °F 93% 30.27 in 8.0 mi Calm Calm - N/A   Clear
6:53 AM 59.0 °F - 57.0 °F 93% 30.27 in 7.0 mi Calm Calm - N/A   Clear
7:53 AM 62.1 °F - 59.0 °F 90% 30.29 in 7.0 mi Calm Calm - N/A   Clear
8:53 AM 64.9 °F - 61.0 °F 87% 30.29 in 10.0 mi Calm Calm - N/A   Clear
9:53 AM 70.0 °F - 61.0 °F 73% 30.28 in 10.0 mi SSW 5.8 mph - N/A   Clear
10:53 AM 73.0 °F - 62.1 °F 68% 30.27 in 10.0 mi SW 3.5 mph - N/A   Clear
11:53 AM 78.1 °F - 64.0 °F 62% 30.26 in 10.0 mi Variable 3.5 mph - N/A   Clear
12:53 PM 82.0 °F 83.8 °F 64.9 °F 56% 30.24 in 10.0 mi Calm Calm - N/A   Clear
1:53 PM 82.0 °F 83.1 °F 63.0 °F 52% 30.22 in 10.0 mi Variable 3.5 mph - N/A   Clear
2:53 PM 84.0 °F 84.9 °F 63.0 °F 49% 30.19 in 10.0 mi Variable 4.6 mph - N/A   Scattered Clouds
3:53 PM 82.9 °F 84.4 °F 64.0 °F 53% 30.16 in 10.0 mi Variable 4.6 mph - N/A   Scattered Clouds
4:53 PM 82.9 °F 84.6 °F 64.9 °F 54% 30.13 in 10.0 mi SSW 9.2 mph - N/A   Scattered Clouds
5:53 PM 82.0 °F 84.1 °F 66.0 °F 58% 30.12 in 10.0 mi SW 4.6 mph - N/A   Clear
6:53 PM 81.0 °F 83.3 °F 66.9 °F 62% 30.12 in 10.0 mi SW 3.5 mph - N/A   Clear
7:53 PM 78.1 °F - 68.0 °F 71% 30.11 in 10.0 mi Calm Calm - N/A   Clear
8:53 PM 73.0 °F - 69.1 °F 87% 30.11 in 8.0 mi South 4.6 mph - N/A   Clear
9:53 PM 73.0 °F - 68.0 °F 84% 30.12 in 9.0 mi Calm Calm - N/A   Clear
10:53 PM 72.0 °F - 66.9 °F 84% 30.10 in 8.0 mi SSW 4.6 mph - N/A   Clear
11:53 PM 72.0 °F - 66.9 °F 84% 30.09 in 7.0 mi SSW 4.6 mph - N/A   Clear